Regional Weather Roundup
Issued by NWS

Home | Current Version | Previous Version | Text Only | Print | Product List | Glossary On
Versions: 1 2 3 4 5 6 7 8 9 10 11 12 13 14 15 16 17 18 19 20 21 22 23 24 25 26 27 28 29 30 31 32 33 34 35 36 37 38 39 40 41 42 43 44 45 46 47 48 49 50
000
ASUS43 KLMK 180002
RWRKY
KENTUCKY REGIONAL WEATHER ROUNDUP
NATIONAL WEATHER SERVICE LOUISVILLE KY
800 PM EDT FRI APR 17 2015

NOTE "FAIR" INDICATES FEW OR NO CLOUDS BELOW 12,000 FEET
WITH NO SIGNIFICANT WEATHER AND/OR OBSTRUCTIONS TO VISIBILITY.

KYZ001>023-026-027-061>063-070>075-180100-
WESTERN AND SOUTH CENTRAL KENTUCKY

CITY           SKY/WX    TMP DP  RH WIND       PRES   REMARKS
PADUCAH        MOCLDY    73  62  68 SW3       29.99R
HENDERSON      MOCLDY    70  59  68 CALM      29.99S
OWENSBORO      PTCLDY    74  61  63 VRB3      30.00F
HOPKINSVILLE   CLEAR     71  62  73 NE2       30.00S
BOWLING GREEN  MOCLDY    70  59  68 CALM      30.01S
GLASGOW        NOT AVBL
$$

KYZ024-025-028>034-038-045-046-053-180100-
NORTH CENTRAL KENTUCKY

CITY           SKY/WX    TMP DP  RH WIND       PRES   REMARKS
LOUISVILLE/SDF CLOUDY    73  58  59 SE6       30.00S
LOUISVILLE/LOU CLOUDY    72  58  61 VRB5      30.01S
FORT KNOX      MOCLDY    71  58  61 CALM      30.00S
$$

KYZ035>037-039>044-047>052-055>060-089>105-180100-
NORTHEAST KENTUCKY

CITY           SKY/WX    TMP DP  RH WIND       PRES   REMARKS
LEXINGTON      CLOUDY    69  58  67 CALM      30.02S
COVINGTON      MOCLDY    71  47  42 N5        30.01F
FRANKFORT      CLOUDY    69  57  65 S5        30.00S
$$

KYZ054-064>069-076>088-106>120-180100-
SOUTHEAST KENTUCKY

CITY           SKY/WX    TMP DP  RH WIND       PRES   REMARKS
JACKSON        MOCLDY    70  54  56 CALM      30.01F
LONDON         CLOUDY    73  54  51 N6        30.01S
SOMERSET       NOT AVBL
MIDDLESBORO    NOT AVBL
MONTICELLO     MOCLDY    69  61  76 NW3       30.04S
$$



USA.gov is the U.S. government's official web portal to all federal, state and local government web resources and services.